QPF
0.00 0.00 0.00 0.00 0.00 0.00 0.00 0.00 0.00 0.00 0.00 0.00 0.00 0.00 0.00 0.00 0.00 0.00 0.00 0.00 0.00 0.00 0.00 0.00 0.00 0.00 0.00 0.01 0.01 0.01 0.01 0.01 0.02 0.02 0.02 0.02 0.03 0.03
0.00 0.00 0.00 0.00 0.00 0.00 0.00 0.00 0.00 0.00 0.00 0.00 0.00 0.00 0.00 0.00 0.00 0.00 0.00 0.00 0.00 0.00 0.00 0.00 0.00 0.00 0.00 0.01 0.01 0.01 0.02 0.02 0.02 0.02 0.03 0.03 0.03 0.04
0.00 0.00 0.00 0.00 0.00 0.00 0.00 0.00 0.00 0.00 0.00 0.00 0.00 0.00 0.00 0.00 0.00 0.00 0.00 0.00 0.00 0.00 0.00 0.00 0.00 0.00 0.00 0.01 0.01 0.01 0.02 0.02 0.03 0.03 0.03 0.03 0.04 0.04
0.00 0.00 0.00 0.00 0.00 0.00 0.00 0.00 0.00 0.00 0.00 0.00 0.00 0.00 0.00 0.00 0.00 0.00 0.00 0.00 0.00 0.00 0.00 0.00 0.00 0.00 0.00 0.01 0.01 0.01 0.02 0.02 0.02 0.02 0.03 0.03 0.04 0.04
0.00 0.00 0.00 0.00 0.00 0.00 0.00 0.00 0.00 0.00 0.00 0.00 0.00 0.00 0.00 0.00 0.00 0.00 0.00 0.00 0.00 0.00 0.00 0.00 0.00 0.00 0.00 0.01 0.01 0.01 0.01 0.01 0.02 0.02 0.02 0.03 0.03 0.04
0.00 0.00 0.00 0.00 0.00 0.00 0.00 0.00 0.00 0.00 0.00 0.00 0.00 0.00 0.00 0.00 0.00 0.00 0.00 0.00 0.00 0.00 0.00 0.00 0.00 0.00 0.00 0.00 0.00 0.00 0.00 0.01 0.01 0.02 0.03 0.03 0.04 0.04
0.00 0.00 0.00 0.00 0.00 0.00 0.00 0.00 0.00 0.00 0.00 0.00 0.00 0.00 0.00 0.00 0.00 0.00 0.00 0.00 0.00 0.00 0.00 0.00 0.00 0.00 0.00 0.00 0.00 0.00 0.00 0.01 0.02 0.03 0.04 0.04 0.04 0.04
0.00 0.00 0.00 0.00 0.00 0.00 0.00 0.00 0.00 0.00 0.00 0.00 0.00 0.00 0.00 0.00 0.00 0.00 0.00 0.01 0.00 0.00 0.00 0.00 0.00 0.00 0.00 0.00 0.00 0.00 0.01 0.02 0.02 0.03 0.03 0.04 0.04 0.04
0.00 0.00 0.00 0.00 0.00 0.00 0.00 0.00 0.00 0.00 0.00 0.00 0.00 0.00 0.00 0.00 0.00 0.01 0.01 0.01 0.02 0.01 0.01 0.01 0.01 0.00 0.00 0.00 0.00 0.01 0.01 0.01 0.02 0.03 0.03 0.03 0.04 0.04
0.00 0.00 0.00 0.00 0.00 0.00 0.00 0.00 0.00 0.00 0.00 0.00 0.00 0.00 0.00 0.01 0.01 0.02 0.02 0.02 0.02 0.01 0.01 0.02 0.00 0.00 0.00 0.00 0.00 0.00 0.01 0.01 0.02 0.02 0.03 0.03 0.03 0.03
0.00 0.00 0.00 0.00 0.00 0.00 0.00 0.00 0.00 0.00 0.00 0.00 0.01 0.01 0.01 0.01 0.02 0.02 0.02 0.03 0.02 0.01 0.00 0.01 0.00 0.00 0.00 0.00 0.00 0.00 0.00 0.01 0.01 0.01 0.02 0.02 0.03 0.03
0.00 0.00 0.00 0.00 0.00 0.00 0.00 0.00 0.00 0.00 0.00 0.00 0.00 0.00 0.00 0.00 0.01 0.01 0.02 0.03 0.02 0.01 0.00 0.01 0.01 0.01 0.01 0.00 0.00 0.00 0.00 0.00 0.00 0.00 0.01 0.01 0.02 0.02
0.00 0.00 0.00 0.00 0.00 0.00 0.01 0.01 0.01 0.01 0.01 0.01 0.01 0.01 0.01 0.01 0.00 0.00 0.01 0.01 0.02 0.02 0.01 0.02 0.02 0.01 0.02 0.01 0.00 0.00 0.00 0.00 0.00 0.00 0.00 0.01 0.02 0.02
0.00 0.00 0.00 0.00 0.00 0.01 0.01 0.01 0.01 0.01 0.01 0.01 0.01 0.00 0.00 0.00 0.00 0.00 0.00 0.00 0.01 0.01 0.01 0.02 0.03 0.02 0.03 0.02 0.00 0.00 0.00 0.00 0.00 0.00 0.00 0.01 0.01 0.01
0.00 0.00 0.00 0.00 0.00 0.00 0.00 0.01 0.01 0.01 0.00 0.01 0.01 0.00 0.00 0.00 0.00 0.01 0.00 0.00 0.00 0.00 0.01 0.01 0.01 0.02 0.03 0.03 0.01 0.00 0.00 0.00 0.00 0.00 0.01 0.01 0.00 0.00
0.00 0.00 0.00 0.00 0.00 0.00 0.00 0.00 0.00 0.00 0.01 0.01 0.01 0.01 0.01 0.01 0.01 0.01 0.01 0.01 0.01 0.00 0.00 0.00 0.01 0.01 0.01 0.01 0.01 0.01 0.01 0.01 0.01 0.01 0.01 0.00 0.00 0.00
0.00 0.00 0.00 0.00 0.00 0.00 0.00 0.00 0.00 0.00 0.01 0.01 0.01 0.01 0.01 0.01 0.01 0.01 0.01 0.01 0.01 0.01 0.00 0.00 0.00 0.00 0.01 0.01 0.01 0.01 0.01 0.01 0.01 0.01 0.01 0.01 0.00 0.00
0.00 0.00 0.00 0.00 0.00 0.00 0.00 0.00 0.00 0.00 0.01 0.01 0.01 0.02 0.01 0.01 0.01 0.01 0.01 0.01 0.01 0.01 0.01 0.00 0.00 0.00 0.00 0.00 0.00 0.01 0.01 0.01 0.01 0.01 0.01 0.01 0.01 0.01
0.00 0.00 0.00 0.00 0.00 0.00 0.00 0.01 0.01 0.01 0.01 0.02 0.01 0.01 0.01 0.01 0.01 0.01 0.01 0.01 0.01 0.01 0.01 0.00 0.01 0.01 0.01 0.01 0.00 0.01 0.01 0.01 0.01 0.01 0.01 0.01 0.01 0.01
0.00 0.00 0.00 0.00 0.00 0.00 0.00 0.01 0.01 0.01 0.01 0.01 0.01 0.01 0.01 0.01 0.01 0.01 0.01 0.01 0.01 0.01 0.00 0.00 0.01 0.01 0.03 0.02 0.02 0.00 0.01 0.02 0.02 0.01 0.01 0.01 0.01 0.01
0.00 0.00 0.00 0.00 0.00 0.00 0.00 0.01 0.01 0.01 0.01 0.01 0.01 0.01 0.01 0.01 0.01 0.00 0.00 0.01 0.01 0.01 0.01 0.00 0.00 0.01 0.02 0.02 0.01 0.01 0.01 0.01 0.01 0.02 0.02 0.01 0.01 0.00
0.00 0.00 0.00 0.00 0.00 0.00 0.01 0.01 0.01 0.01 0.01 0.01 0.01 0.01 0.01 0.01 0.00 0.00 0.01 0.01 0.01 0.01 0.01 0.00 0.00 0.00 0.01 0.01 0.01 0.01 0.01 0.01 0.01 0.01 0.01 0.01 0.01 0.01
0.00 0.00 0.00 0.00 0.00 0.01 0.01 0.01 0.01 0.01 0.01 0.01 0.01 0.01 0.01 0.01 0.01 0.01 0.01 0.01 0.01 0.01 0.00 0.00 0.00 0.00 0.01 0.01 0.01 0.01 0.01 0.01 0.01 0.00 0.00 0.00 0.00 0.00
MSLP
1021.65 1022.17 1022.67 1023.12 1023.52 1023.86 1024.12 1024.31 1024.43 1024.50 1024.53 1024.52 1024.46 1024.37 1024.24 1024.07 1023.85 1023.58 1023.28 1022.95 1022.59 1022.22 1021.84 1021.46 1021.06 1020.65 1020.23 1019.78 1019.30 1018.81 1018.30 1017.78 1017.27 1016.75 1016.24 1015.73 1015.23 1014.73
1021.43 1021.94 1022.41 1022.85 1023.24 1023.58 1023.85 1024.06 1024.22 1024.33 1024.39 1024.41 1024.38 1024.31 1024.18 1023.99 1023.76 1023.47 1023.15 1022.79 1022.42 1022.04 1021.65 1021.26 1020.86 1020.45 1020.01 1019.55 1019.05 1018.53 1017.99 1017.43 1016.88 1016.32 1015.78 1015.24 1014.72 1014.20
1021.15 1021.63 1022.08 1022.50 1022.88 1023.22 1023.50 1023.74 1023.93 1024.08 1024.18 1024.23 1024.22 1024.16 1024.04 1023.85 1023.60 1023.30 1022.96 1022.59 1022.21 1021.82 1021.43 1021.03 1020.63 1020.20 1019.76 1019.28 1018.76 1018.21 1017.63 1017.04 1016.44 1015.85 1015.26 1014.69 1014.14 1013.60
1020.78 1021.24 1021.67 1022.08 1022.44 1022.78 1023.07 1023.33 1023.55 1023.72 1023.85 1023.93 1023.95 1023.91 1023.79 1023.61 1023.36 1023.06 1022.71 1022.34 1021.96 1021.56 1021.17 1020.78 1020.37 1019.94 1019.48 1018.98 1018.44 1017.86 1017.25 1016.62 1015.98 1015.35 1014.73 1014.12 1013.54 1012.97
1020.34 1020.78 1021.19 1021.58 1021.94 1022.26 1022.56 1022.82 1023.06 1023.25 1023.40 1023.50 1023.53 1023.50 1023.40 1023.24 1023.00 1022.72 1022.39 1022.04 1021.66 1021.29 1020.90 1020.51 1020.10 1019.66 1019.18 1018.66 1018.10 1017.49 1016.85 1016.19 1015.52 1014.85 1014.20 1013.56 1012.96 1012.38
1019.85 1020.27 1020.66 1021.03 1021.37 1021.69 1021.98 1022.24 1022.47 1022.66 1022.81 1022.91 1022.96 1022.94 1022.86 1022.72 1022.52 1022.27 1021.98 1021.66 1021.33 1020.98 1020.61 1020.23 1019.82 1019.36 1018.87 1018.32 1017.73 1017.09 1016.42 1015.73 1015.04 1014.35 1013.68 1013.04 1012.42 1011.84
1019.33 1019.74 1020.11 1020.46 1020.78 1021.08 1021.34 1021.58 1021.79 1021.97 1022.11 1022.20 1022.24 1022.24 1022.18 1022.07 1021.92 1021.72 1021.49 1021.24 1020.96 1020.65 1020.31 1019.94 1019.52 1019.06 1018.54 1017.96 1017.33 1016.66 1015.97 1015.26 1014.55 1013.86 1013.19 1012.55 1011.95 1011.38
1018.83 1019.21 1019.56 1019.89 1020.18 1020.45 1020.69 1020.90 1021.07 1021.21 1021.32 1021.39 1021.43 1021.43 1021.39 1021.32 1021.23 1021.10 1020.95 1020.77 1020.55 1020.29 1019.99 1019.63 1019.21 1018.73 1018.18 1017.56 1016.90 1016.20 1015.49 1014.77 1014.06 1013.38 1012.72 1012.11 1011.54 1011.01
1018.35 1018.71 1019.04 1019.34 1019.61 1019.84 1020.04 1020.21 1020.34 1020.44 1020.51 1020.55 1020.57 1020.57 1020.56 1020.54 1020.51 1020.46 1020.38 1020.28 1020.13 1019.93 1019.66 1019.32 1018.89 1018.38 1017.80 1017.15 1016.45 1015.73 1015.00 1014.27 1013.58 1012.92 1012.31 1011.74 1011.21 1010.73
1017.89 1018.22 1018.53 1018.81 1019.05 1019.26 1019.43 1019.55 1019.64 1019.69 1019.72 1019.73 1019.73 1019.74 1019.75 1019.78 1019.80 1019.83 1019.83 1019.81 1019.73 1019.57 1019.33 1019.00 1018.56 1018.03 1017.42 1016.73 1016.01 1015.27 1014.53 1013.82 1013.15 1012.53 1011.97 1011.45 1010.99 1010.57
1017.43 1017.74 1018.04 1018.30 1018.52 1018.71 1018.85 1018.94 1018.99 1019.01 1019.00 1018.99 1018.98 1018.99 1019.02 1019.09 1019.17 1019.26 1019.33 1019.37 1019.34 1019.23 1019.02 1018.69 1018.24 1017.69 1017.05 1016.35 1015.61 1014.86 1014.14 1013.45 1012.82 1012.25 1011.75 1011.30 1010.90 1010.53
1016.95 1017.25 1017.53 1017.78 1018.00 1018.17 1018.30 1018.37 1018.40 1018.39 1018.37 1018.34 1018.33 1018.35 1018.40 1018.50 1018.63 1018.76 1018.89 1018.98 1018.99 1018.91 1018.71 1018.39 1017.94 1017.38 1016.73 1016.02 1015.29 1014.56 1013.85 1013.21 1012.63 1012.12 1011.67 1011.28 1010.94 1010.63
1016.43 1016.72 1017.00 1017.25 1017.47 1017.64 1017.76 1017.83 1017.86 1017.84 1017.82 1017.79 1017.79 1017.82 1017.90 1018.02 1018.18 1018.35 1018.51 1018.63 1018.66 1018.60 1018.41 1018.09 1017.65 1017.10 1016.46 1015.77 1015.05 1014.36 1013.70 1013.10 1012.58 1012.12 1011.73 1011.40 1011.11 1010.83
1015.88 1016.17 1016.44 1016.70 1016.92 1017.10 1017.23 1017.30 1017.34 1017.33 1017.32 1017.31 1017.32 1017.37 1017.48 1017.62 1017.80 1018.00 1018.17 1018.30 1018.35 1018.29 1018.11 1017.80 1017.37 1016.84 1016.23 1015.57 1014.90 1014.26 1013.66 1013.12 1012.65 1012.25 1011.91 1011.61 1011.35 1011.10
1015.33 1015.61 1015.88 1016.13 1016.36 1016.54 1016.68 1016.76 1016.81 1016.83 1016.84 1016.85 1016.89 1016.97 1017.10 1017.27 1017.46 1017.67 1017.84 1017.97 1018.02 1017.96 1017.79 1017.49 1017.08 1016.58 1016.02 1015.41 1014.81 1014.23 1013.69 1013.21 1012.80 1012.44 1012.13 1011.86 1011.60 1011.35
1014.82 1015.08 1015.35 1015.59 1015.80 1015.98 1016.11 1016.21 1016.26 1016.30 1016.34 1016.38 1016.46 1016.57 1016.73 1016.91 1017.12 1017.33 1017.51 1017.63 1017.67 1017.61 1017.44 1017.16 1016.78 1016.32 1015.81 1015.27 1014.73 1014.22 1013.74 1013.32 1012.95 1012.62 1012.33 1012.06 1011.80 1011.52
1014.41 1014.65 1014.88 1015.09 1015.28 1015.43 1015.54 1015.62 1015.68 1015.74 1015.80 1015.88 1015.99 1016.13 1016.32 1016.53 1016.75 1016.96 1017.14 1017.25 1017.28 1017.22 1017.06 1016.80 1016.45 1016.04 1015.58 1015.11 1014.64 1014.19 1013.77 1013.39 1013.05 1012.73 1012.44 1012.16 1011.86 1011.55
1014.16 1014.36 1014.54 1014.69 1014.82 1014.91 1014.98 1015.04 1015.08 1015.13 1015.21 1015.32 1015.46 1015.65 1015.87 1016.10 1016.34 1016.56 1016.74 1016.85 1016.88 1016.82 1016.66 1016.42 1016.11 1015.74 1015.34 1014.92 1014.51 1014.11 1013.74 1013.39 1013.06 1012.75 1012.44 1012.12 1011.79 1011.43
1014.08 1014.22 1014.33 1014.40 1014.44 1014.46 1014.46 1014.46 1014.48 1014.52 1014.60 1014.72 1014.90 1015.12 1015.37 1015.64 1015.91 1016.14 1016.33 1016.44 1016.48 1016.42 1016.28 1016.06 1015.78 1015.45 1015.10 1014.73 1014.37 1014.01 1013.67 1013.33 1013.01 1012.68 1012.34 1011.99 1011.61 1011.20
1014.19 1014.24 1014.26 1014.23 1014.17 1014.09 1014.01 1013.94 1013.90 1013.92 1013.99 1014.13 1014.33 1014.58 1014.87 1015.18 1015.47 1015.73 1015.93 1016.06 1016.10 1016.06 1015.94 1015.74 1015.49 1015.21 1014.89 1014.57 1014.24 1013.92 1013.59 1013.26 1012.93 1012.58 1012.22 1011.82 1011.40 1010.95
1014.44 1014.40 1014.31 1014.17 1014.00 1013.81 1013.64 1013.49 1013.40 1013.37 1013.43 1013.57 1013.79 1014.07 1014.40 1014.73 1015.06 1015.34 1015.56 1015.72 1015.78 1015.76 1015.66 1015.49 1015.28 1015.03 1014.75 1014.46 1014.17 1013.87 1013.56 1013.24 1012.90 1012.53 1012.14 1011.72 1011.26 1010.77
1014.77 1014.64 1014.44 1014.20 1013.92 1013.63 1013.36 1013.13 1012.98 1012.92 1012.96 1013.09 1013.32 1013.63 1013.97 1014.34 1014.69 1015.00 1015.25 1015.42 1015.51 1015.52 1015.45 1015.32 1015.14 1014.93 1014.69 1014.44 1014.18 1013.91 1013.62 1013.31 1012.97 1012.60 1012.19 1011.75 1011.27 1010.76
1015.12 1014.90 1014.61 1014.27 1013.90 1013.52 1013.17 1012.88 1012.68 1012.58 1012.60 1012.73 1012.96 1013.27 1013.63 1014.01 1014.38 1014.71 1014.99 1015.18 1015.30 1015.34 1015.30 1015.21 1015.08 1014.91 1014.72 1014.51 1014.28 1014.04 1013.78 1013.49 1013.16 1012.80 1012.40 1011.96 1011.48 1010.97
Thickness
5527 5522 5516 5511 5505 5500 5494 5487 5479 5474 5473 5472 5470 5469 5465 5462 5458 5455 5452 5449 5447 5445 5444 5442 5441 5439 5438 5437 5436 5436 5436 5436 5436 5437 5439 5440 5442 5445
5520 5514 5508 5503 5497 5492 5486 5479 5473 5467 5463 5464 5461 5459 5456 5452 5448 5445 5442 5438 5435 5433 5431 5429 5427 5425 5423 5422 5421 5420 5419 5419 5418 5419 5420 5421 5423 5425
5513 5507 5501 5496 5489 5484 5478 5472 5465 5459 5456 5457 5453 5450 5446 5442 5438 5434 5431 5427 5423 5420 5417 5415 5412 5410 5407 5405 5403 5401 5400 5399 5398 5398 5398 5399 5401 5403
5506 5499 5494 5488 5481 5476 5470 5464 5458 5453 5447 5447 5445 5439 5435 5431 5427 5423 5419 5415 5411 5407 5403 5400 5397 5393 5390 5387 5384 5381 5379 5377 5376 5375 5375 5376 5377 5378
5499 5493 5487 5480 5473 5467 5462 5456 5451 5446 5440 5435 5434 5429 5424 5420 5416 5412 5407 5402 5397 5392 5388 5384 5380 5376 5372 5368 5364 5361 5358 5356 5354 5353 5352 5352 5353 5354
5491 5485 5479 5472 5466 5460 5454 5448 5442 5436 5430 5425 5423 5418 5413 5408 5401 5397 5395 5389 5384 5378 5373 5368 5363 5358 5352 5348 5345 5342 5339 5336 5334 5333 5332 5332 5331 5332
5482 5477 5471 5465 5459 5453 5447 5440 5434 5427 5420 5415 5411 5407 5401 5393 5387 5383 5379 5376 5371 5363 5358 5352 5344 5340 5334 5329 5325 5322 5321 5319 5317 5316 5315 5314 5314 5315
5474 5468 5462 5457 5451 5446 5440 5435 5427 5418 5410 5404 5400 5393 5389 5381 5375 5368 5362 5358 5355 5350 5340 5337 5328 5323 5318 5313 5309 5308 5306 5304 5302 5301 5300 5300 5300 5301
5466 5459 5454 5448 5442 5435 5430 5425 5417 5410 5403 5395 5388 5381 5374 5368 5361 5355 5347 5340 5337 5330 5322 5322 5314 5309 5304 5299 5295 5294 5292 5291 5289 5289 5288 5288 5289 5291
5457 5451 5444 5438 5431 5425 5419 5413 5405 5397 5390 5383 5376 5369 5361 5354 5345 5339 5333 5328 5323 5314 5304 5302 5301 5296 5293 5287 5283 5281 5280 5279 5279 5278 5278 5279 5281 5283
5448 5441 5434 5427 5422 5416 5409 5401 5394 5386 5378 5371 5364 5356 5348 5340 5331 5324 5316 5309 5307 5301 5291 5286 5286 5284 5283 5278 5274 5270 5270 5269 5269 5270 5271 5272 5274 5277
5437 5431 5424 5418 5411 5404 5396 5387 5380 5374 5366 5359 5350 5341 5332 5324 5316 5307 5299 5293 5289 5285 5280 5273 5272 5268 5271 5271 5265 5262 5261 5260 5261 5263 5264 5266 5269 5271
5427 5420 5413 5407 5400 5393 5384 5375 5367 5361 5354 5345 5336 5327 5318 5309 5302 5294 5286 5279 5273 5270 5267 5262 5260 5257 5254 5258 5258 5255 5254 5255 5255 5257 5259 5261 5264 5266
5417 5410 5402 5396 5388 5380 5371 5362 5355 5347 5337 5328 5319 5311 5303 5297 5290 5283 5277 5270 5264 5260 5257 5253 5250 5248 5246 5247 5249 5250 5249 5250 5251 5253 5255 5257 5260 5262
5406 5399 5391 5383 5375 5365 5356 5347 5338 5328 5319 5311 5304 5298 5292 5285 5279 5273 5267 5261 5256 5252 5250 5247 5244 5242 5240 5240 5242 5243 5244 5247 5249 5249 5251 5254 5256 5259
5393 5386 5378 5369 5359 5350 5341 5330 5320 5311 5303 5297 5292 5286 5280 5274 5267 5261 5256 5251 5246 5245 5243 5241 5239 5237 5235 5236 5236 5238 5240 5241 5245 5247 5249 5252 5255 5258
5380 5371 5361 5352 5342 5333 5324 5315 5305 5297 5290 5284 5278 5273 5268 5263 5258 5252 5246 5242 5237 5235 5235 5235 5234 5234 5233 5233 5233 5236 5238 5240 5242 5244 5247 5250 5254 5257
5367 5356 5346 5336 5328 5319 5310 5301 5293 5285 5279 5273 5267 5262 5257 5252 5247 5242 5238 5233 5230 5228 5227 5227 5227 5228 5228 5232 5233 5234 5235 5237 5240 5242 5245 5248 5253 5257
5350 5340 5330 5321 5313 5304 5295 5287 5280 5274 5268 5261 5256 5251 5247 5243 5238 5234 5230 5227 5224 5223 5222 5222 5221 5221 5221 5223 5228 5232 5233 5235 5238 5241 5244 5247 5250 5256
5333 5323 5315 5307 5298 5290 5283 5276 5270 5263 5257 5251 5246 5242 5237 5234 5230 5227 5224 5221 5219 5218 5218 5218 5217 5217 5218 5221 5224 5228 5232 5234 5236 5240 5243 5247 5251 5256
5318 5309 5301 5293 5286 5279 5272 5266 5259 5254 5248 5243 5238 5233 5229 5226 5223 5221 5218 5218 5217 5215 5214 5215 5216 5219 5219 5219 5220 5225 5230 5234 5236 5239 5242 5246 5250 5254
5305 5296 5289 5282 5275 5268 5262 5256 5250 5245 5240 5235 5231 5226 5223 5220 5218 5215 5213 5212 5212 5211 5212 5213 5215 5215 5216 5217 5219 5222 5227 5233 5237 5241 5244 5247 5248 5252
5292 5285 5278 5272 5265 5259 5253 5248 5243 5238 5233 5228 5224 5221 5217 5215 5213 5211 5210 5209 5209 5209 5210 5210 5211 5212 5214 5216 5218 5221 5226 5230 5235 5240 5244 5249 5252 5255